Time,TemperatureF,DewpointF,PressureIn,WindDirection,WindDirectionDegrees,WindSpeedMPH,WindSpeedGustMPH,Humidity,HourlyPrecipIn,Conditions,Clouds,dailyrainin,SolarRadiationWatts/m^2,SoftwareType,DateUTC
2013-09-06 00:03:00,72.5,61.7,29.97,East,89,3.5,3.5,69,0.00,CLR,FEW,0.00,0.0,WeatherDisplay:10.37,2013-09-05 22:03:00,
2013-09-06 00:08:00,72.7,61.9,29.97,East,89,3.5,3.5,69,0.00,CLR,FEW,0.00,0.0,WeatherDisplay:10.37,2013-09-05 22:08:00,
2013-09-06 00:13:00,72.9,61.7,29.97,East,89,2.3,2.3,68,0.00,CLR,FEW,0.00,0.0,WeatherDisplay:10.37,2013-09-05 22:13:00,
2013-09-06 00:18:00,73.0,61.8,29.97,East,89,2.3,2.3,68,0.00,CLR,FEW,0.00,0.0,WeatherDisplay:10.37,2013-09-05 22:18:00,
2013-09-06 00:23:00,73.1,61.5,29.97,East,89,2.3,2.3,67,0.00,CLR,FEW,0.00,0.0,WeatherDisplay:10.37,2013-09-05 22:23:00,
2013-09-06 00:28:00,73.2,61.6,29.97,East,90,5.0,5.0,67,0.00,CLR,FEW,0.00,0.0,WeatherDisplay:10.37,2013-09-05 22:28:00,
2013-09-06 00:33:00,73.3,61.3,29.97,East,90,3.5,3.5,66,0.00,CLR,FEW,0.00,0.0,WeatherDisplay:10.37,2013-09-05 22:33:00,
2013-09-06 00:38:00,73.3,61.3,29.97,East,90,3.5,3.5,66,0.00,CLR,FEW,0.00,0.0,WeatherDisplay:10.37,2013-09-05 22:38:00,
2013-09-06 00:43:00,73.3,61.3,29.97,East,84,4.6,4.6,66,0.00,CLR,FEW,0.00,0.0,WeatherDisplay:10.37,2013-09-05 22:43:00,
2013-09-06 00:48:00,73.3,60.8,29.97,ENE,59,4.6,4.6,65,0.00,CLR,FEW,0.00,0.0,WeatherDisplay:10.37,2013-09-05 22:48:00,
2013-09-06 00:53:00,73.3,60.8,29.97,ENE,60,4.0,4.0,65,0.00,CLR,FEW,0.00,0.0,WeatherDisplay:10.37,2013-09-05 22:53:00,
2013-09-06 00:58:00,73.3,60.8,29.97,ENE,74,5.0,5.0,65,0.00,CLR,FEW,0.00,0.0,WeatherDisplay:10.37,2013-09-05 22:58:00,
2013-09-06 01:03:00,73.2,60.7,29.96,ENE,74,3.5,3.5,65,0.00,CLR,FEW,0.00,0.0,WeatherDisplay:10.37,2013-09-05 23:03:00,
2013-09-06 01:08:00,73.1,60.6,29.96,ENE,74,3.5,3.5,65,0.00,CLR,FEW,0.00,0.0,WeatherDisplay:10.37,2013-09-05 23:08:00,
2013-09-06 01:13:00,73.1,61.1,29.96,ENE,76,3.5,3.5,66,0.00,CLR,FEW,0.00,0.0,WeatherDisplay:10.37,2013-09-05 23:13:00,
2013-09-06 01:18:00,73.0,60.5,29.96,ENE,77,4.0,4.0,65,0.00,CLR,FEW,0.00,0.0,WeatherDisplay:10.37,2013-09-05 23:18:00,
2013-09-06 01:23:00,73.1,60.6,29.96,East,79,3.5,3.5,65,0.00,CLR,FEW,0.00,0.0,WeatherDisplay:10.37,2013-09-05 23:23:00,
2013-09-06 01:28:00,73.1,60.6,29.96,East,90,5.0,5.0,65,0.00,CLR,FEW,0.00,0.0,WeatherDisplay:10.37,2013-09-05 23:28:00,
2013-09-06 01:33:00,73.1,60.2,29.96,East,90,4.6,4.6,64,0.00,CLR,FEW,0.00,0.0,WeatherDisplay:10.37,2013-09-05 23:33:00,
2013-09-06 01:38:00,73.1,60.2,29.96,East,90,3.5,3.5,64,0.00,CLR,FEW,0.00,0.0,WeatherDisplay:10.37,2013-09-05 23:38:00,
2013-09-06 01:43:00,73.1,60.2,29.96,East,94,4.6,4.6,64,0.00,CLR,FEW,0.00,0.0,WeatherDisplay:10.37,2013-09-05 23:43:00,
2013-09-06 01:48:00,73.2,59.8,29.96,East,100,4.0,4.0,63,0.00,CLR,FEW,0.00,0.0,WeatherDisplay:10.37,2013-09-05 23:48:00,
2013-09-06 01:53:00,73.4,60.0,29.95,East,100,4.0,4.0,63,0.00,CLR,FEW,0.00,0.0,WeatherDisplay:10.37,2013-09-05 23:53:00,
2013-09-06 01:58:00,73.6,59.8,29.95,East,100,4.6,4.6,62,0.00,CLR,FEW,0.00,0.0,WeatherDisplay:10.37,2013-09-05 23:58:00,
2013-09-06 02:03:00,73.7,59.4,29.95,East,100,3.5,3.5,61,0.00,CLR,FEW,0.00,0.0,WeatherDisplay:10.37,2013-09-06 00:03:00,
2013-09-06 02:08:00,73.6,58.9,29.95,East,100,2.3,2.3,60,0.00,CLR,FEW,0.00,0.0,WeatherDisplay:10.37,2013-09-06 00:08:00,
2013-09-06 02:13:00,73.4,58.2,29.95,East,100,1.2,0.0,59,0.00,CLR,FEW,0.00,0.0,WeatherDisplay:10.37,2013-09-06 00:13:00,
2013-09-06 02:18:00,73.3,58.1,29.95,East,100,0.0,0.0,59,0.00,CLR,FEW,0.00,0.0,WeatherDisplay:10.37,2013-09-06 00:18:00,
2013-09-06 02:23:00,73.2,58.0,29.95,East,100,0.0,0.2,59,0.00,CLR,FEW,0.00,0.0,WeatherDisplay:10.37,2013-09-06 00:23:00,
2013-09-06 02:28:00,72.9,57.7,29.95,East,100,1.2,1.2,59,0.00,CLR,FEW,0.00,0.0,WeatherDisplay:10.37,2013-09-06 00:28:00,
2013-09-06 02:33:00,72.7,58.0,29.95,East,100,1.2,1.2,60,0.00,CLR,FEW,0.00,0.0,WeatherDisplay:10.37,2013-09-06 00:33:00,
2013-09-06 02:38:00,72.5,58.3,29.95,East,100,2.0,2.0,61,0.00,CLR,FEW,0.00,0.0,WeatherDisplay:10.37,2013-09-06 00:38:00,
2013-09-06 02:43:00,72.2,58.0,29.94,East,100,3.5,3.5,61,0.00,CLR,FEW,0.00,0.0,WeatherDisplay:10.37,2013-09-06 00:43:00,
2013-09-06 02:48:00,72.0,57.4,29.94,East,100,4.0,4.0,60,0.00,CLR,FEW,0.00,0.0,WeatherDisplay:10.37,2013-09-06 00:48:00,
2013-09-06 02:53:00,71.9,57.7,29.94,East,100,3.5,3.5,61,0.00,CLR,FEW,0.00,0.0,WeatherDisplay:10.37,2013-09-06 00:53:00,
2013-09-06 02:58:00,71.8,57.6,29.94,East,100,0.0,0.0,61,0.00,CLR,FEW,0.00,0.0,WeatherDisplay:10.37,2013-09-06 00:58:00,
2013-09-06 03:03:00,71.7,58.0,29.94,East,101,5.0,5.0,62,0.00,CLR,FEW,0.00,0.0,WeatherDisplay:10.37,2013-09-06 01:03:00,
2013-09-06 03:08:00,71.7,58.9,29.94,ESE,102,5.0,5.0,64,0.00,CLR,FEW,0.00,0.0,WeatherDisplay:10.37,2013-09-06 01:08:00,
2013-09-06 03:13:00,71.8,59.4,29.93,ESE,102,4.6,4.6,65,0.00,CLR,FEW,0.00,0.0,WeatherDisplay:10.37,2013-09-06 01:13:00,
2013-09-06 03:18:00,71.7,58.9,29.93,ESE,102,4.0,4.0,64,0.00,CLR,FEW,0.00,0.0,WeatherDisplay:10.37,2013-09-06 01:18:00,
2013-09-06 03:23:00,71.8,59.4,29.94,ESE,102,4.0,4.0,65,0.00,CLR,FEW,0.00,0.0,WeatherDisplay:10.37,2013-09-06 01:23:00,
2013-09-06 03:28:00,71.8,59.4,29.93,ESE,102,3.5,3.5,65,0.00,CLR,FEW,0.00,0.0,WeatherDisplay:10.37,2013-09-06 01:28:00,
2013-09-06 03:33:00,71.9,59.5,29.93,ESE,102,3.5,3.5,65,0.00,CLR,FEW,0.00,0.0,WeatherDisplay:10.37,2013-09-06 01:33:00,
2013-09-06 03:38:00,71.9,59.9,29.93,ESE,102,3.5,3.5,66,0.00,CLR,FEW,0.00,0.0,WeatherDisplay:10.37,2013-09-06 01:38:00,
2013-09-06 03:43:00,71.8,59.8,29.93,ESE,102,4.0,4.0,66,0.00,CLR,FEW,0.00,0.0,WeatherDisplay:10.37,2013-09-06 01:43:00,
2013-09-06 03:48:00,71.8,59.8,29.93,ESE,104,4.0,4.0,66,0.00,CLR,FEW,0.00,0.0,WeatherDisplay:10.37,2013-09-06 01:48:00,
2013-09-06 03:53:00,71.7,59.3,29.93,ESE,104,2.3,2.3,65,0.00,CLR,FEW,0.00,0.0,WeatherDisplay:10.37,2013-09-06 01:53:00,
2013-09-06 03:58:00,71.7,59.7,29.93,ESE,104,1.2,1.2,66,0.00,CLR,FEW,0.00,0.0,WeatherDisplay:10.37,2013-09-06 01:58:00,
2013-09-06 04:03:00,71.6,59.2,29.93,ESE,104,2.3,2.3,65,0.00,CLR,FEW,0.00,0.0,WeatherDisplay:10.37,2013-09-06 02:03:00,
2013-09-06 04:08:00,71.6,59.2,29.93,ESE,104,3.5,3.5,65,0.00,CLR,FEW,0.00,0.0,WeatherDisplay:10.37,2013-09-06 02:08:00,
2013-09-06 04:13:00,71.5,59.1,29.93,ESE,104,2.3,2.3,65,0.00,CLR,FEW,0.00,0.0,WeatherDisplay:10.37,2013-09-06 02:13:00,
2013-09-06 04:19:00,71.4,59.0,29.93,ESE,104,3.5,3.5,65,0.00,CLR,FEW,0.00,0.0,WeatherDisplay:10.37,2013-09-06 02:19:00,
2013-09-06 04:24:00,71.3,58.9,29.92,ESE,104,0.0,0.3,65,0.00,CLR,FEW,0.00,0.0,WeatherDisplay:10.37,2013-09-06 02:24:00,
2013-09-06 04:29:00,71.1,58.7,29.92,ESE,104,1.2,0.0,65,0.00,CLR,FEW,0.00,0.0,WeatherDisplay:10.37,2013-09-06 02:29:00,
2013-09-06 04:34:00,70.9,58.5,29.93,ESE,104,2.0,2.0,65,0.00,CLR,FEW,0.00,0.0,WeatherDisplay:10.37,2013-09-06 02:34:00,
2013-09-06 04:39:00,70.6,58.3,29.93,ESE,104,4.0,4.0,65,0.00,CLR,FEW,0.00,0.0,WeatherDisplay:10.37,2013-09-06 02:39:00,
2013-09-06 04:44:00,70.6,58.3,29.93,South,180,4.6,4.6,65,0.00,CLR,FEW,0.00,0.0,WeatherDisplay:10.37,2013-09-06 02:44:00,
2013-09-06 04:49:00,70.7,58.8,29.93,South,184,4.0,4.0,66,0.00,CLR,FEW,0.00,0.0,WeatherDisplay:10.37,2013-09-06 02:49:00,
2013-09-06 04:54:00,70.9,59.4,29.93,South,184,3.5,3.5,67,0.00,CLR,FEW,0.00,0.0,WeatherDisplay:10.37,2013-09-06 02:54:00,
2013-09-06 04:59:00,71.3,61.0,29.93,South,184,3.5,3.5,70,0.00,CLR,FEW,0.00,0.0,WeatherDisplay:10.37,2013-09-06 02:59:00,
2013-09-06 05:04:00,71.7,62.2,29.93,South,176,4.6,4.6,72,0.00,CLR,FEW,0.00,0.0,WeatherDisplay:10.37,2013-09-06 03:04:00,
2013-09-06 05:09:00,71.7,61.8,29.93,South,176,3.5,3.5,71,0.00,CLR,FEW,0.00,0.0,WeatherDisplay:10.37,2013-09-06 03:09:00,
2013-09-06 05:14:00,71.6,61.7,29.93,South,176,1.2,0.0,71,0.00,CLR,FEW,0.00,0.0,WeatherDisplay:10.37,2013-09-06 03:14:00,
2013-09-06 05:19:00,71.4,61.5,29.93,South,176,2.3,2.3,71,0.00,CLR,FEW,0.00,0.0,WeatherDisplay:10.37,2013-09-06 03:19:00,
2013-09-06 05:24:00,71.4,61.9,29.93,South,176,2.3,2.3,72,0.00,CLR,FEW,0.00,0.0,WeatherDisplay:10.37,2013-09-06 03:24:00,
2013-09-06 05:29:00,71.4,61.9,29.93,South,176,0.0,0.0,72,0.00,CLR,FEW,0.00,0.0,WeatherDisplay:10.37,2013-09-06 03:29:00,
2013-09-06 05:34:00,71.3,62.2,29.93,South,176,0.0,0.0,73,0.00,CLR,FEW,0.00,0.0,WeatherDisplay:10.37,2013-09-06 03:34:00,
2013-09-06 05:39:00,71.2,62.1,29.93,South,176,1.2,1.2,73,0.00,CLR,FEW,0.00,0.0,WeatherDisplay:10.37,2013-09-06 03:39:00,
2013-09-06 05:44:00,71.0,62.3,29.93,South,176,1.2,0.0,74,0.00,CLR,FEW,0.00,0.0,WeatherDisplay:10.37,2013-09-06 03:44:00,
2013-09-06 05:49:00,70.7,62.0,29.93,South,176,1.0,1.0,74,0.00,CLR,FEW,0.00,0.0,WeatherDisplay:10.37,2013-09-06 03:49:00,
2013-09-06 05:54:00,70.4,61.7,29.93,South,176,3.5,3.5,74,0.00,CLR,FEW,0.00,0.0,WeatherDisplay:10.37,2013-09-06 03:54:00,
2013-09-06 05:59:00,70.2,61.9,29.93,South,176,3.5,3.5,75,0.00,CLR,FEW,0.00,0.0,WeatherDisplay:10.37,2013-09-06 03:59:00,
2013-09-06 06:01:00,70.1,62.2,29.93,South,176,5.0,5.0,76,0.00,CLR,FEW,0.00,0.0,WeatherDisplay:10.37,2013-09-06 04:01:00,
2013-09-06 06:06:00,70.1,62.6,29.93,South,173,3.5,3.5,77,0.00,OVC,FEW,0.00,0.0,WeatherDisplay:10.37,2013-09-06 04:06:00,
2013-09-06 06:11:00,70.4,63.6,29.93,South,172,4.6,4.6,79,0.00,OVC,FEW,0.00,0.0,WeatherDisplay:10.37,2013-09-06 04:11:00,
2013-09-06 06:16:00,70.5,63.7,29.93,South,186,3.5,3.5,79,0.00,OVC,FEW,0.00,0.0,WeatherDisplay:10.37,2013-09-06 04:16:00,
2013-09-06 06:21:00,70.6,63.8,29.93,South,190,2.3,2.3,79,0.00,OVC,FEW,0.00,0.0,WeatherDisplay:10.37,2013-09-06 04:21:00,
2013-09-06 06:26:00,70.5,63.7,29.94,South,190,0.0,0.0,79,0.00,OVC,FEW,0.00,0.0,WeatherDisplay:10.37,2013-09-06 04:26:00,
2013-09-06 06:31:00,70.5,63.3,29.94,South,190,0.0,0.0,78,0.00,OVC,FEW,0.00,0.0,WeatherDisplay:10.37,2013-09-06 04:31:00,
2013-09-06 06:36:00,70.5,63.7,29.94,South,190,2.0,2.0,79,0.00,OVC,FEW,0.00,0.0,WeatherDisplay:10.37,2013-09-06 04:36:00,
2013-09-06 06:41:00,70.5,64.0,29.94,South,190,2.3,2.3,80,0.00,OVC,FEW,0.00,0.0,WeatherDisplay:10.37,2013-09-06 04:41:00,
2013-09-06 06:46:00,70.6,64.5,29.94,South,190,3.5,3.5,81,0.00,OVC,FEW,0.00,0.0,WeatherDisplay:10.37,2013-09-06 04:46:00,
2013-09-06 06:51:00,70.7,64.9,29.94,South,190,2.3,2.3,82,0.00,OVC,FEW,0.00,0.0,WeatherDisplay:10.37,2013-09-06 04:51:00,
2013-09-06 06:56:00,70.5,64.7,29.94,South,190,2.3,2.3,82,0.00,OVC,FEW,0.00,0.0,WeatherDisplay:10.37,2013-09-06 04:56:00,
2013-09-06 07:01:00,70.2,64.8,29.94,South,190,2.3,2.3,83,0.00,OVC,FEW,0.00,0.0,WeatherDisplay:10.37,2013-09-06 05:01:00,
2013-09-06 07:06:00,70.0,64.6,29.94,South,190,3.5,3.5,83,0.00,OVC,FEW,0.00,0.0,WeatherDisplay:10.37,2013-09-06 05:06:00,
2013-09-06 07:11:00,69.9,64.5,29.94,South,190,2.3,0.0,83,0.00,OVC,FEW,0.00,0.0,WeatherDisplay:10.37,2013-09-06 05:11:00,
2013-09-06 07:16:00,69.9,64.5,29.94,South,190,0.0,0.0,83,0.00,OVC,FEW,0.00,0.0,WeatherDisplay:10.37,2013-09-06 05:16:00,
2013-09-06 07:21:00,70.0,64.6,29.94,South,190,0.0,0.0,83,0.00,OVC,FEW,0.00,0.0,WeatherDisplay:10.37,2013-09-06 05:21:00,
2013-09-06 07:26:00,70.2,65.1,29.94,South,190,0.0,0.0,84,0.00,OVC,FEW,0.00,0.0,WeatherDisplay:10.37,2013-09-06 05:26:00,
2013-09-06 07:31:00,70.3,65.2,29.94,South,190,0.0,0.0,84,0.00,OVC,FEW,0.00,0.0,WeatherDisplay:10.37,2013-09-06 05:31:00,
2013-09-06 07:36:00,70.6,65.5,29.94,South,190,1.2,1.2,84,0.00,OVC,FEW,0.00,0.0,WeatherDisplay:10.37,2013-09-06 05:36:00,
2013-09-06 07:41:00,70.8,65.7,29.95,South,190,0.0,0.0,84,0.00,OVC,FEW,0.00,0.0,WeatherDisplay:10.37,2013-09-06 05:41:00,
2013-09-06 07:46:00,71.1,65.7,29.95,South,190,0.0,0.0,83,0.00,OVC,FEW,0.00,0.0,WeatherDisplay:10.37,2013-09-06 05:46:00,
2013-09-06 07:51:00,71.3,65.9,29.95,South,190,0.0,0.0,83,0.00,OVC,FEW,0.00,0.0,WeatherDisplay:10.37,2013-09-06 05:51:00,
2013-09-06 07:56:00,71.5,66.1,29.94,South,190,0.0,0.0,83,0.00,OVC,FEW,0.00,0.0,WeatherDisplay:10.37,2013-09-06 05:56:00,
2013-09-06 08:01:00,71.8,66.0,29.95,South,190,0.0,0.0,82,0.00,OVC,FEW,0.00,0.0,WeatherDisplay:10.37,2013-09-06 06:01:00,
2013-09-06 08:06:00,72.1,66.3,29.95,South,190,0.0,0.0,82,0.00,OVC,FEW,0.00,0.0,WeatherDisplay:10.37,2013-09-06 06:06:00,
2013-09-06 08:11:00,72.7,66.5,29.95,South,190,0.0,0.0,81,0.00,OVC,FEW,0.00,0.0,WeatherDisplay:10.37,2013-09-06 06:11:00,
2013-09-06 08:16:00,73.1,66.9,29.95,South,190,0.0,0.0,81,0.00,OVC,FEW,0.00,0.0,WeatherDisplay:10.37,2013-09-06 06:16:00,
2013-09-06 08:21:00,73.7,66.8,29.95,South,190,0.0,0.0,79,0.00,OVC,FEW,0.00,0.0,WeatherDisplay:10.37,2013-09-06 06:21:00,
2013-09-06 08:26:00,74.2,66.5,29.95,South,190,1.2,1.2,77,0.00,OVC,FEW,0.00,0.0,WeatherDisplay:10.37,2013-09-06 06:26:00,
2013-09-06 08:31:00,74.7,66.2,29.95,South,190,0.0,0.0,75,0.00,OVC,FEW,0.00,0.0,WeatherDisplay:10.37,2013-09-06 06:31:00,
2013-09-06 08:36:00,75.2,65.9,29.95,South,190,1.2,0.0,73,0.00,OVC,FEW,0.00,0.0,WeatherDisplay:10.37,2013-09-06 06:36:00,
2013-09-06 08:41:00,75.6,65.9,29.95,South,190,0.0,0.0,72,0.00,OVC,FEW,0.00,0.0,WeatherDisplay:10.37,2013-09-06 06:41:00,
2013-09-06 08:46:00,76.2,66.1,29.95,South,190,1.2,1.2,71,0.00,OVC,FEW,0.00,0.0,WeatherDisplay:10.37,2013-09-06 06:46:00,
2013-09-06 08:51:00,76.8,66.7,29.95,South,190,1.2,0.0,71,0.00,OVC,FEW,0.00,0.0,WeatherDisplay:10.37,2013-09-06 06:51:00,
2013-09-06 08:56:00,77.3,67.2,29.95,South,190,2.3,2.3,71,0.00,OVC,FEW,0.00,0.0,WeatherDisplay:10.37,2013-09-06 06:56:00,
2013-09-06 09:01:00,77.6,67.0,29.95,South,190,1.2,1.2,70,0.00,OVC,FEW,0.00,0.0,WeatherDisplay:10.37,2013-09-06 07:01:00,
2013-09-06 09:06:00,77.5,66.1,29.95,South,190,2.3,2.3,68,0.00,OVC,FEW,0.00,0.0,WeatherDisplay:10.37,2013-09-06 07:06:00,
2013-09-06 09:11:00,77.6,66.6,29.95,South,190,1.2,1.2,69,0.00,OVC,FEW,0.00,0.0,WeatherDisplay:10.37,2013-09-06 07:11:00,
2013-09-06 09:16:00,77.9,66.5,29.95,South,190,1.2,1.2,68,0.00,OVC,FEW,0.00,0.0,WeatherDisplay:10.37,2013-09-06 07:16:00,
2013-09-06 09:21:00,78.0,66.6,29.95,South,190,1.2,1.2,68,0.00,OVC,FEW,0.00,0.0,WeatherDisplay:10.37,2013-09-06 07:21:00,
2013-09-06 09:26:00,78.2,66.3,29.95,South,190,0.0,0.0,67,0.00,OVC,FEW,0.00,0.0,WeatherDisplay:10.37,2013-09-06 07:26:00,
2013-09-06 09:31:00,78.6,66.3,29.95,South,190,1.2,1.2,66,0.00,OVC,FEW,0.00,0.0,WeatherDisplay:10.37,2013-09-06 07:31:00,
2013-09-06 09:36:00,78.9,66.1,29.95,South,190,2.3,2.3,65,0.00,OVC,FEW,0.00,0.0,WeatherDisplay:10.37,2013-09-06 07:36:00,
2013-09-06 09:41:00,79.1,66.8,29.95,South,190,2.3,2.3,66,0.00,OVC,FEW,0.00,0.0,WeatherDisplay:10.37,2013-09-06 07:41:00,
2013-09-06 09:46:00,79.0,66.7,29.95,ENE,57,3.5,3.5,66,0.00,OVC,FEW,0.00,0.0,WeatherDisplay:10.37,2013-09-06 07:46:00,
2013-09-06 09:51:00,78.8,66.5,29.95,NE,51,2.3,2.3,66,0.00,OVC,FEW,0.00,0.0,WeatherDisplay:10.37,2013-09-06 07:51:00,
2013-09-06 09:56:00,78.6,65.4,29.95,NE,42,3.0,3.0,64,0.00,OVC,FEW,0.00,0.0,WeatherDisplay:10.37,2013-09-06 07:56:00,
2013-09-06 10:01:00,78.5,66.2,29.95,NE,42,3.5,3.5,66,0.00,OVC,FEW,0.00,0.0,WeatherDisplay:10.37,2013-09-06 08:01:00,
2013-09-06 10:06:00,78.6,66.3,29.95,NE,41,3.5,3.5,66,0.00,OVC,FEW,0.00,0.0,WeatherDisplay:10.37,2013-09-06 08:06:00,
2013-09-06 10:11:00,78.6,66.3,29.95,NNE,24,3.5,3.5,66,0.00,OVC,FEW,0.00,0.0,WeatherDisplay:10.37,2013-09-06 08:11:00,
2013-09-06 10:16:00,78.4,63.8,29.94,NNE,24,2.3,2.3,61,0.00,OVC,FEW,0.00,0.0,WeatherDisplay:10.37,2013-09-06 08:16:00,
2013-09-06 10:21:00,78.6,62.6,29.94,NNE,24,3.5,3.5,58,0.00,OVC,FEW,0.00,0.0,WeatherDisplay:10.37,2013-09-06 08:21:00,
2013-09-06 10:26:00,79.2,63.1,29.95,NNE,24,2.3,2.3,58,0.00,OVC,FEW,0.00,0.0,WeatherDisplay:10.37,2013-09-06 08:26:00,
2013-09-06 10:31:00,79.4,61.3,29.94,NNE,24,1.2,1.2,54,0.00,OVC,FEW,0.00,0.0,WeatherDisplay:10.37,2013-09-06 08:31:00,
2013-09-06 10:36:00,79.5,59.2,29.94,NNE,26,3.5,3.5,50,0.00,OVC,FEW,0.00,0.0,WeatherDisplay:10.37,2013-09-06 08:36:00,
2013-09-06 10:41:00,79.9,59.0,29.94,NNE,26,2.3,2.3,49,0.00,OVC,FEW,0.00,0.0,WeatherDisplay:10.37,2013-09-06 08:41:00,
2013-09-06 10:46:00,80.4,57.1,29.94,NNE,26,1.2,1.2,45,0.00,OVC,FEW,0.00,0.0,WeatherDisplay:10.37,2013-09-06 08:46:00,
2013-09-06 10:51:00,81.2,59.6,29.95,NW,317,3.5,3.5,48,0.00,OVC,FEW,0.00,0.0,WeatherDisplay:10.37,2013-09-06 08:51:00,
2013-09-06 10:56:00,81.6,60.6,29.94,NW,318,3.5,3.5,49,0.00,OVC,FEW,0.00,0.0,WeatherDisplay:10.37,2013-09-06 08:56:00,
2013-09-06 11:01:00,81.9,59.7,29.94,NW,318,2.3,2.3,47,0.00,OVC,FEW,0.00,0.0,WeatherDisplay:10.37,2013-09-06 09:01:00,
2013-09-06 11:07:00,82.2,60.6,29.94,NW,320,3.5,3.5,48,0.00,OVC,FEW,0.00,0.0,WeatherDisplay:10.37,2013-09-06 09:07:00,
2013-09-06 11:12:00,82.8,61.7,29.94,NW,322,2.0,2.0,49,0.00,OVC,FEW,0.00,0.0,WeatherDisplay:10.37,2013-09-06 09:12:00,
2013-09-06 11:17:00,83.1,58.3,29.94,NW,322,2.3,2.3,43,0.00,OVC,FEW,0.00,0.0,WeatherDisplay:10.37,2013-09-06 09:17:00,
2013-09-06 11:22:00,83.5,56.6,29.94,NW,311,2.3,2.3,40,0.00,OVC,FEW,0.00,0.0,WeatherDisplay:10.37,2013-09-06 09:22:00,
2013-09-06 11:27:00,83.5,58.6,29.94,NW,309,3.5,3.5,43,0.00,OVC,FEW,0.00,0.0,WeatherDisplay:10.37,2013-09-06 09:27:00,
2013-09-06 11:32:00,83.7,58.8,29.94,West,279,3.5,3.5,43,0.00,OVC,FEW,0.00,0.0,WeatherDisplay:10.37,2013-09-06 09:32:00,
2013-09-06 11:37:00,83.6,58.1,29.94,West,279,3.5,3.5,42,0.00,OVC,FEW,0.00,0.0,WeatherDisplay:10.37,2013-09-06 09:37:00,
2013-09-06 11:42:00,84.0,58.4,29.94,West,279,3.5,3.5,42,0.00,OVC,FEW,0.00,0.0,WeatherDisplay:10.37,2013-09-06 09:42:00,
2013-09-06 11:47:00,84.0,57.1,29.94,West,279,2.3,0.0,40,0.00,OVC,FEW,0.00,0.0,WeatherDisplay:10.37,2013-09-06 09:47:00,
2013-09-06 11:52:00,84.2,57.3,29.94,WNW,292,2.3,2.3,40,0.00,OVC,FEW,0.00,0.0,WeatherDisplay:10.37,2013-09-06 09:52:00,
2013-09-06 11:57:00,84.0,57.1,29.94,WNW,292,2.3,2.3,40,0.00,OVC,FEW,0.00,0.0,WeatherDisplay:10.37,2013-09-06 09:57:00,
2013-09-06 12:02:00,84.4,58.8,29.93,WNW,292,2.3,2.3,42,0.00,OVC,FEW,0.00,0.0,WeatherDisplay:10.37,2013-09-06 10:02:00,
2013-09-06 12:07:00,84.8,59.2,29.93,WNW,293,3.5,3.5,42,0.00,OVC,FEW,0.00,0.0,WeatherDisplay:10.37,2013-09-06 10:07:00,
2013-09-06 12:12:00,85.1,59.4,29.93,North,5,3.5,3.5,42,0.00,OVC,FEW,0.00,0.0,WeatherDisplay:10.37,2013-09-06 10:12:00,
2013-09-06 12:17:00,84.9,59.2,29.93,North,5,2.3,2.3,42,0.00,OVC,FEW,0.00,0.0,WeatherDisplay:10.37,2013-09-06 10:17:00,
2013-09-06 12:22:00,85.6,59.9,29.93,NW,312,3.5,3.5,42,0.00,OVC,FEW,0.00,0.0,WeatherDisplay:10.37,2013-09-06 10:22:00,
2013-09-06 12:27:00,85.9,62.7,29.93,NW,313,3.5,3.5,46,0.00,OVC,FEW,0.00,0.0,WeatherDisplay:10.37,2013-09-06 10:27:00,
2013-09-06 12:32:00,85.5,65.3,29.93,West,263,4.6,4.6,51,0.00,OVC,FEW,0.00,0.0,WeatherDisplay:10.37,2013-09-06 10:32:00,
2013-09-06 12:37:00,84.4,64.3,29.93,West,272,6.9,6.9,51,0.00,OVC,FEW,0.00,0.0,WeatherDisplay:10.37,2013-09-06 10:37:00,
2013-09-06 12:42:00,83.0,60.7,29.93,West,281,5.8,5.8,47,0.00,OVC,FEW,0.00,0.0,WeatherDisplay:10.37,2013-09-06 10:42:00,
2013-09-06 12:47:00,82.6,59.1,29.93,WNW,286,5.0,5.0,45,0.00,OVC,FEW,0.00,0.0,WeatherDisplay:10.37,2013-09-06 10:47:00,
2013-09-06 12:52:00,82.5,56.4,29.93,WSW,239,5.8,5.8,41,0.00,OVC,FEW,0.00,0.0,WeatherDisplay:10.37,2013-09-06 10:52:00,
2013-09-06 12:57:00,82.4,57.7,29.93,West,279,8.1,8.1,43,0.00,OVC,FEW,0.00,0.0,WeatherDisplay:10.37,2013-09-06 10:57:00,
2013-09-06 13:02:00,82.6,59.1,29.93,West,273,6.9,6.9,45,0.00,OVC,FEW,0.00,0.0,WeatherDisplay:10.37,2013-09-06 11:02:00,
2013-09-06 13:07:00,82.6,60.3,29.93,WNW,288,8.1,8.1,47,0.00,OVC,FEW,0.00,0.0,WeatherDisplay:10.37,2013-09-06 11:07:00,
2013-09-06 13:12:00,82.4,60.1,29.93,WSW,257,8.1,8.1,47,0.00,OVC,FEW,0.00,0.0,WeatherDisplay:10.37,2013-09-06 11:12:00,
2013-09-06 13:17:00,82.4,65.1,29.93,SW,232,9.2,9.2,56,0.00,OVC,FEW,0.00,0.0,WeatherDisplay:10.37,2013-09-06 11:17:00,
2013-09-06 13:22:00,82.1,64.8,29.93,SW,226,8.1,8.1,56,0.00,OVC,FEW,0.00,0.0,WeatherDisplay:10.37,2013-09-06 11:22:00,
2013-09-06 13:27:00,81.8,57.8,29.93,West,281,6.9,6.9,44,0.00,OVC,FEW,0.00,0.0,WeatherDisplay:10.37,2013-09-06 11:27:00,
2013-09-06 13:32:00,81.8,59.0,29.93,West,265,9.2,9.2,46,0.00,OVC,FEW,0.00,0.0,WeatherDisplay:10.37,2013-09-06 11:32:00,
2013-09-06 13:37:00,81.8,60.8,29.92,West,266,5.8,5.8,49,0.00,OVC,FEW,0.00,0.0,WeatherDisplay:10.37,2013-09-06 11:37:00,
2013-09-06 13:42:00,82.0,61.0,29.92,West,277,5.0,5.0,49,0.00,OVC,FEW,0.00,0.0,WeatherDisplay:10.37,2013-09-06 11:42:00,
2013-09-06 13:47:00,82.2,58.1,29.93,WSW,255,8.1,8.1,44,0.00,OVC,FEW,0.00,0.0,WeatherDisplay:10.37,2013-09-06 11:47:00,
2013-09-06 13:52:00,82.3,60.6,29.93,West,273,6.9,6.9,48,0.00,OVC,FEW,0.00,0.0,WeatherDisplay:10.37,2013-09-06 11:52:00,
2013-09-06 13:57:00,82.8,61.1,29.92,West,271,6.9,6.9,48,0.00,OVC,FEW,0.00,0.0,WeatherDisplay:10.37,2013-09-06 11:57:00,
2013-09-06 14:02:00,83.1,61.4,29.92,West,265,5.8,5.8,48,0.00,OVC,FEW,0.00,0.0,WeatherDisplay:10.37,2013-09-06 12:02:00,
2013-09-06 14:07:00,83.6,60.0,29.92,West,281,5.8,5.8,45,0.00,OVC,FEW,0.00,0.0,WeatherDisplay:10.37,2013-09-06 12:07:00,
2013-09-06 14:12:00,83.9,60.9,29.92,West,261,4.0,4.0,46,0.00,OVC,FEW,0.00,0.0,WeatherDisplay:10.37,2013-09-06 12:12:00,
2013-09-06 14:17:00,84.0,61.6,29.92,SW,230,3.5,3.5,47,0.00,OVC,FEW,0.00,0.0,WeatherDisplay:10.37,2013-09-06 12:17:00,
2013-09-06 14:22:00,84.4,61.4,29.92,WNW,300,4.6,4.6,46,0.00,OVC,FEW,0.00,0.0,WeatherDisplay:10.37,2013-09-06 12:22:00,
2013-09-06 14:27:00,84.5,58.9,29.92,West,275,5.0,5.0,42,0.00,OVC,FEW,0.00,0.0,WeatherDisplay:10.37,2013-09-06 12:27:00,
2013-09-06 14:32:00,84.5,57.5,29.92,WSW,255,4.6,4.6,40,0.00,OVC,FEW,0.00,0.0,WeatherDisplay:10.37,2013-09-06 12:32:00,
2013-09-06 14:37:00,84.4,58.1,29.92,West,269,5.8,5.8,41,0.00,OVC,FEW,0.00,0.0,WeatherDisplay:10.37,2013-09-06 12:37:00,
2013-09-06 14:42:00,84.4,60.7,29.92,West,272,8.0,8.0,45,0.00,OVC,FEW,0.00,0.0,WeatherDisplay:10.37,2013-09-06 12:42:00,
2013-09-06 14:47:00,84.3,62.5,29.92,West,266,6.0,6.0,48,0.00,OVC,FEW,0.00,0.0,WeatherDisplay:10.37,2013-09-06 12:47:00,
2013-09-06 14:52:00,84.2,62.4,29.92,West,275,10.4,10.4,48,0.00,OVC,FEW,0.00,0.0,WeatherDisplay:10.37,2013-09-06 12:52:00,
2013-09-06 14:57:00,83.8,62.0,29.92,WSW,249,6.9,6.9,48,0.00,OVC,FEW,0.00,0.0,WeatherDisplay:10.37,2013-09-06 12:57:00,
2013-09-06 15:02:00,83.7,61.9,29.92,West,269,6.9,6.9,48,0.00,OVC,FEW,0.00,0.0,WeatherDisplay:10.37,2013-09-06 13:02:00,
2013-09-06 15:07:00,83.6,63.0,29.92,SW,223,4.6,4.6,50,0.00,OVC,FEW,0.00,0.0,WeatherDisplay:10.37,2013-09-06 13:07:00,
2013-09-06 15:12:00,83.4,62.8,29.92,WSW,258,6.9,6.9,50,0.00,OVC,FEW,0.00,0.0,WeatherDisplay:10.37,2013-09-06 13:12:00,
2013-09-06 15:17:00,83.0,61.9,29.91,WNW,291,8.1,8.1,49,0.00,OVC,FEW,0.00,0.0,WeatherDisplay:10.37,2013-09-06 13:17:00,
2013-09-06 15:22:00,82.7,62.7,29.91,SW,236,5.8,5.8,51,0.00,OVC,FEW,0.00,0.0,WeatherDisplay:10.37,2013-09-06 13:22:00,
2013-09-06 15:27:00,82.9,62.9,29.92,WSW,245,3.5,3.5,51,0.00,OVC,FEW,0.00,0.0,WeatherDisplay:10.37,2013-09-06 13:27:00,
2013-09-06 15:32:00,82.8,63.4,29.91,West,265,8.1,8.1,52,0.00,OVC,FEW,0.00,0.0,WeatherDisplay:10.37,2013-09-06 13:32:00,
2013-09-06 15:37:00,82.3,65.0,29.92,SW,232,8.1,8.1,56,0.00,OVC,FEW,0.00,0.0,WeatherDisplay:10.37,2013-09-06 13:37:00,
2013-09-06 15:42:00,81.9,65.2,29.91,WSW,251,5.8,5.8,57,0.00,OVC,FEW,0.00,0.0,WeatherDisplay:10.37,2013-09-06 13:42:00,
2013-09-06 15:47:00,81.9,67.1,29.91,WSW,246,8.1,8.1,61,0.00,OVC,FEW,0.00,0.0,WeatherDisplay:10.37,2013-09-06 13:47:00,
2013-09-06 15:52:00,81.5,67.7,29.91,WSW,250,10.4,10.4,63,0.00,OVC,FEW,0.00,0.0,WeatherDisplay:10.37,2013-09-06 13:52:00,
2013-09-06 15:57:00,80.8,67.5,29.91,West,266,8.1,8.1,64,0.00,OVC,FEW,0.00,0.0,WeatherDisplay:10.37,2013-09-06 13:57:00,
2013-09-06 16:02:00,80.3,66.6,29.91,NW,304,9.2,9.2,63,0.00,OVC,FEW,0.00,0.0,WeatherDisplay:10.37,2013-09-06 14:02:00,
2013-09-06 16:07:00,80.2,66.0,29.91,West,259,9.2,9.2,62,0.00,OVC,FEW,0.00,0.0,WeatherDisplay:10.37,2013-09-06 14:07:00,
2013-09-06 16:12:00,80.5,66.7,29.91,WSW,257,5.8,5.8,63,0.00,OVC,FEW,0.00,0.0,WeatherDisplay:10.37,2013-09-06 14:12:00,
2013-09-06 16:17:00,80.7,66.9,29.91,SW,236,11.5,11.5,63,0.00,OVC,FEW,0.00,0.0,WeatherDisplay:10.37,2013-09-06 14:17:00,
2013-09-06 16:22:00,80.6,67.7,29.91,West,275,9.2,9.2,65,0.00,OVC,FEW,0.00,0.0,WeatherDisplay:10.37,2013-09-06 14:22:00,
2013-09-06 16:27:00,80.4,67.6,29.91,WSW,252,9.2,9.2,65,0.00,OVC,FEW,0.00,0.0,WeatherDisplay:10.37,2013-09-06 14:27:00,
2013-09-06 16:32:00,80.3,67.5,29.91,WNW,292,8.1,8.1,65,0.00,OVC,FEW,0.00,0.0,WeatherDisplay:10.37,2013-09-06 14:32:00,
2013-09-06 16:37:00,80.2,68.2,29.91,West,265,8.1,8.1,67,0.00,OVC,FEW,0.00,0.0,WeatherDisplay:10.37,2013-09-06 14:37:00,
2013-09-06 16:42:00,79.9,67.5,29.91,West,263,11.5,11.5,66,0.00,OVC,FEW,0.00,0.0,WeatherDisplay:10.37,2013-09-06 14:42:00,
2013-09-06 16:47:00,80.1,68.6,29.91,WSW,248,4.6,4.6,68,0.00,OVC,FEW,0.00,0.0,WeatherDisplay:10.37,2013-09-06 14:47:00,
2013-09-06 16:52:00,80.1,69.0,29.91,West,268,5.8,5.8,69,0.00,OVC,FEW,0.00,0.0,WeatherDisplay:10.37,2013-09-06 14:52:00,
2013-09-06 16:57:00,80.1,69.0,29.91,West,281,6.9,6.9,69,0.00,OVC,FEW,0.00,0.0,WeatherDisplay:10.37,2013-09-06 14:57:00,
2013-09-06 17:02:00,80.1,69.0,29.91,West,262,5.8,5.8,69,0.00,OVC,FEW,0.00,0.0,WeatherDisplay:10.37,2013-09-06 15:02:00,
2013-09-06 17:07:00,80.0,69.3,29.91,West,263,3.5,3.5,70,0.00,OVC,FEW,0.00,0.0,WeatherDisplay:10.37,2013-09-06 15:07:00,
2013-09-06 17:12:00,80.1,69.4,29.91,West,259,8.1,8.1,70,0.00,OVC,FEW,0.00,0.0,WeatherDisplay:10.37,2013-09-06 15:12:00,
2013-09-06 17:17:00,79.7,69.0,29.91,WNW,303,8.1,8.1,70,0.00,OVC,FEW,0.00,0.0,WeatherDisplay:10.37,2013-09-06 15:17:00,
2013-09-06 17:22:00,79.4,69.2,29.91,West,265,6.9,6.9,71,0.00,OVC,FEW,0.00,0.0,WeatherDisplay:10.37,2013-09-06 15:22:00,
2013-09-06 17:27:00,79.4,69.6,29.91,WNW,284,5.8,5.8,72,0.00,OVC,FEW,0.00,0.0,WeatherDisplay:10.37,2013-09-06 15:27:00,
2013-09-06 17:32:00,79.4,69.6,29.92,WSW,240,5.8,5.8,72,0.00,OVC,FEW,0.00,0.0,WeatherDisplay:10.37,2013-09-06 15:32:00,
2013-09-06 17:37:00,79.2,69.0,29.92,WSW,254,6.0,6.0,71,0.00,OVC,FEW,0.00,0.0,WeatherDisplay:10.37,2013-09-06 15:37:00,
2013-09-06 17:42:00,79.0,68.8,29.92,West,270,5.8,5.8,71,0.00,OVC,FEW,0.00,0.0,WeatherDisplay:10.37,2013-09-06 15:42:00,
2013-09-06 17:47:00,78.7,68.5,29.92,West,280,6.9,6.9,71,0.00,OVC,FEW,0.00,0.0,WeatherDisplay:10.37,2013-09-06 15:47:00,
2013-09-06 17:52:00,78.6,68.4,29.92,West,275,6.9,6.9,71,0.00,OVC,FEW,0.00,0.0,WeatherDisplay:10.37,2013-09-06 15:52:00,
2013-09-06 17:57:00,78.5,68.3,29.92,West,274,4.6,4.6,71,0.00,OVC,FEW,0.00,0.0,WeatherDisplay:10.37,2013-09-06 15:57:00,
2013-09-06 18:02:00,78.6,68.4,29.93,West,263,5.8,5.8,71,0.00,OVC,FEW,0.00,0.0,WeatherDisplay:10.37,2013-09-06 16:02:00,
2013-09-06 18:07:00,78.5,68.3,29.93,West,273,6.9,6.9,71,0.00,OVC,FEW,0.00,0.0,WeatherDisplay:10.37,2013-09-06 16:07:00,
2013-09-06 18:12:00,78.5,68.3,29.93,WSW,254,5.8,5.8,71,0.00,OVC,FEW,0.00,0.0,WeatherDisplay:10.37,2013-09-06 16:12:00,
2013-09-06 18:17:00,78.3,68.1,29.93,WSW,251,4.6,4.6,71,0.00,OVC,FEW,0.00,0.0,WeatherDisplay:10.37,2013-09-06 16:17:00,
2013-09-06 18:22:00,78.0,67.4,29.93,West,273,3.5,3.5,70,0.00,OVC,FEW,0.00,0.0,WeatherDisplay:10.37,2013-09-06 16:22:00,
2013-09-06 18:27:00,77.8,66.8,29.93,West,271,5.8,5.8,69,0.00,OVC,FEW,0.00,0.0,WeatherDisplay:10.37,2013-09-06 16:27:00,
2013-09-06 18:32:00,77.7,66.3,29.93,West,274,3.5,3.5,68,0.00,OVC,FEW,0.00,0.0,WeatherDisplay:10.37,2013-09-06 16:32:00,
2013-09-06 18:37:00,77.8,66.8,29.93,West,274,3.5,3.5,69,0.00,OVC,FEW,0.00,0.0,WeatherDisplay:10.37,2013-09-06 16:37:00,
2013-09-06 18:42:00,77.9,67.3,29.94,West,274,3.5,3.5,70,0.00,OVC,FEW,0.00,0.0,WeatherDisplay:10.37,2013-09-06 16:42:00,
2013-09-06 18:47:00,77.9,66.9,29.94,West,274,1.2,0.0,69,0.00,OVC,FEW,0.00,0.0,WeatherDisplay:10.37,2013-09-06 16:47:00,
2013-09-06 18:52:00,77.8,66.8,29.94,West,274,3.5,3.5,69,0.00,OVC,FEW,0.00,0.0,WeatherDisplay:10.37,2013-09-06 16:52:00,
2013-09-06 18:57:00,77.6,66.2,29.94,West,274,2.3,2.3,68,0.00,OVC,FEW,0.00,0.0,WeatherDisplay:10.37,2013-09-06 16:57:00,
2013-09-06 19:02:00,77.4,66.4,29.94,West,274,2.3,2.3,69,0.00,OVC,FEW,0.00,0.0,WeatherDisplay:10.37,2013-09-06 17:02:00,
2013-09-06 19:07:00,77.2,66.2,29.94,West,274,2.3,2.3,69,0.00,OVC,FEW,0.00,0.0,WeatherDisplay:10.37,2013-09-06 17:07:00,
2013-09-06 19:12:00,77.0,66.0,29.94,West,274,1.2,1.2,69,0.00,OVC,FEW,0.00,0.0,WeatherDisplay:10.37,2013-09-06 17:12:00,
2013-09-06 19:17:00,76.9,66.0,29.94,West,274,1.2,1.2,69,0.00,OVC,FEW,0.00,0.0,WeatherDisplay:10.37,2013-09-06 17:17:00,
2013-09-06 19:22:00,76.6,66.1,29.94,West,274,1.2,1.2,70,0.00,OVC,FEW,0.00,0.0,WeatherDisplay:10.37,2013-09-06 17:22:00,
2013-09-06 19:27:00,76.4,65.9,29.94,West,274,1.2,0.0,70,0.00,OVC,FEW,0.00,0.0,WeatherDisplay:10.37,2013-09-06 17:27:00,
2013-09-06 19:32:00,76.3,65.8,29.94,West,274,0.0,0.0,70,0.00,OVC,FEW,0.00,0.0,WeatherDisplay:10.37,2013-09-06 17:32:00,
2013-09-06 19:37:00,76.1,66.0,29.94,West,274,0.0,0.0,71,0.00,OVC,FEW,0.00,0.0,WeatherDisplay:10.37,2013-09-06 17:37:00,
2013-09-06 19:42:00,75.9,65.8,29.94,West,274,0.0,0.0,71,0.00,OVC,FEW,0.00,0.0,WeatherDisplay:10.37,2013-09-06 17:42:00,
2013-09-06 19:47:00,75.7,65.6,29.95,West,274,2.3,2.3,71,0.00,OVC,FEW,0.00,0.0,WeatherDisplay:10.37,2013-09-06 17:47:00,
2013-09-06 19:52:00,75.4,65.7,29.95,West,274,1.2,0.0,72,0.00,OVC,FEW,0.00,0.0,WeatherDisplay:10.37,2013-09-06 17:52:00,
2013-09-06 19:57:00,75.2,65.6,29.95,West,274,0.0,0.0,72,0.00,CLR,FEW,0.00,0.0,WeatherDisplay:10.37,2013-09-06 17:57:00,
2013-09-06 20:02:00,75.0,65.8,29.96,West,274,1.2,1.2,73,0.00,CLR,FEW,0.00,0.0,WeatherDisplay:10.37,2013-09-06 18:02:00,
2013-09-06 20:07:00,74.7,65.5,29.96,West,274,1.2,0.0,73,0.00,CLR,FEW,0.00,0.0,WeatherDisplay:10.37,2013-09-06 18:07:00,
2013-09-06 20:12:00,74.5,65.3,29.96,West,274,1.2,0.0,73,0.00,CLR,FEW,0.00,0.0,WeatherDisplay:10.37,2013-09-06 18:12:00,
2013-09-06 20:17:00,74.3,65.1,29.96,West,274,1.2,1.2,73,0.00,CLR,FEW,0.00,0.0,WeatherDisplay:10.37,2013-09-06 18:17:00,
2013-09-06 20:22:00,74.1,64.9,29.97,West,274,0.0,0.0,73,0.00,CLR,FEW,0.00,0.0,WeatherDisplay:10.37,2013-09-06 18:22:00,
2013-09-06 20:27:00,73.9,65.1,29.97,West,274,2.3,2.3,74,0.00,CLR,FEW,0.00,0.0,WeatherDisplay:10.37,2013-09-06 18:27:00,
2013-09-06 20:32:00,73.8,65.0,29.97,West,274,1.2,1.2,74,0.00,CLR,FEW,0.00,0.0,WeatherDisplay:10.37,2013-09-06 18:32:00,
2013-09-06 20:37:00,73.6,65.2,29.97,West,274,0.0,0.0,75,0.00,CLR,FEW,0.00,0.0,WeatherDisplay:10.37,2013-09-06 18:37:00,
2013-09-06 20:42:00,73.5,65.1,29.97,West,274,2.3,0.0,75,0.00,CLR,FEW,0.00,0.0,WeatherDisplay:10.37,2013-09-06 18:42:00,
2013-09-06 20:47:00,73.4,65.0,29.97,West,274,1.2,0.0,75,0.00,CLR,FEW,0.00,0.0,WeatherDisplay:10.37,2013-09-06 18:47:00,
2013-09-06 20:52:00,73.2,64.8,29.98,West,274,0.0,0.0,75,0.00,CLR,FEW,0.00,0.0,WeatherDisplay:10.37,2013-09-06 18:52:00,
2013-09-06 20:57:00,73.1,64.7,29.98,West,274,1.2,0.0,75,0.00,CLR,FEW,0.00,0.0,WeatherDisplay:10.37,2013-09-06 18:57:00,
2013-09-06 21:02:00,72.9,64.5,29.98,West,274,0.0,0.0,75,0.00,CLR,FEW,0.00,0.0,WeatherDisplay:10.37,2013-09-06 19:02:00,
2013-09-06 21:07:00,72.9,64.9,29.98,West,274,0.0,0.0,76,0.00,CLR,FEW,0.00,0.0,WeatherDisplay:10.37,2013-09-06 19:07:00,
2013-09-06 21:12:00,72.8,64.8,29.98,West,274,0.0,0.0,76,0.00,CLR,FEW,0.00,0.0,WeatherDisplay:10.37,2013-09-06 19:12:00,
2013-09-06 21:17:00,72.8,64.8,29.98,West,274,0.0,0.0,76,0.00,CLR,FEW,0.00,0.0,WeatherDisplay:10.37,2013-09-06 19:17:00,
2013-09-06 21:22:00,72.8,65.2,29.98,West,274,1.2,0.0,77,0.00,CLR,FEW,0.00,0.0,WeatherDisplay:10.37,2013-09-06 19:22:00,
2013-09-06 21:27:00,72.8,65.5,29.98,West,274,1.2,0.0,78,0.00,CLR,FEW,0.00,0.0,WeatherDisplay:10.37,2013-09-06 19:27:00,
2013-09-06 21:32:00,72.9,66.0,29.98,West,274,0.0,0.0,79,0.00,CLR,FEW,0.00,0.0,WeatherDisplay:10.37,2013-09-06 19:32:00,
2013-09-06 21:37:00,72.9,66.4,29.98,West,274,0.0,0.0,80,0.00,CLR,FEW,0.00,0.0,WeatherDisplay:10.37,2013-09-06 19:37:00,
2013-09-06 21:42:00,72.8,66.6,29.98,West,274,1.2,1.2,81,0.00,CLR,FEW,0.00,0.0,WeatherDisplay:10.37,2013-09-06 19:42:00,
2013-09-06 21:47:00,72.8,67.0,29.98,West,274,2.0,2.0,82,0.00,CLR,FEW,0.00,0.0,WeatherDisplay:10.37,2013-09-06 19:47:00,
2013-09-06 21:52:00,72.8,67.0,29.98,West,274,0.0,0.0,82,0.00,CLR,FEW,0.00,0.0,WeatherDisplay:10.37,2013-09-06 19:52:00,
2013-09-06 21:57:00,72.8,67.0,29.98,West,274,0.0,0.0,82,0.00,CLR,FEW,0.00,0.0,WeatherDisplay:10.37,2013-09-06 19:57:00,
2013-09-06 22:02:00,72.7,67.2,29.98,West,274,3.5,0.0,83,0.00,CLR,FEW,0.00,0.0,WeatherDisplay:10.37,2013-09-06 20:02:00,
2013-09-06 22:07:00,72.7,67.2,29.98,West,274,0.0,0.0,83,0.00,CLR,FEW,0.00,0.0,WeatherDisplay:10.37,2013-09-06 20:07:00,
2013-09-06 22:12:00,72.5,67.0,29.98,West,274,0.0,0.0,83,0.00,CLR,FEW,0.00,0.0,WeatherDisplay:10.37,2013-09-06 20:12:00,
2013-09-06 22:17:00,72.4,66.9,29.98,West,274,1.2,0.0,83,0.00,CLR,FEW,0.00,0.0,WeatherDisplay:10.37,2013-09-06 20:17:00,
2013-09-06 22:22:00,72.3,66.8,29.98,West,274,0.0,0.0,83,0.00,CLR,FEW,0.00,0.0,WeatherDisplay:10.37,2013-09-06 20:22:00,
2013-09-06 22:27:00,72.1,66.6,29.98,West,274,0.0,0.0,83,0.00,CLR,FEW,0.00,0.0,WeatherDisplay:10.37,2013-09-06 20:27:00,
2013-09-06 22:32:00,72.0,66.6,29.98,West,274,1.2,0.0,83,0.00,CLR,FEW,0.00,0.0,WeatherDisplay:10.37,2013-09-06 20:32:00,
2013-09-06 22:37:00,72.0,66.6,29.98,West,274,0.0,0.0,83,0.00,CLR,FEW,0.00,0.0,WeatherDisplay:10.37,2013-09-06 20:37:00,
2013-09-06 22:42:00,72.0,66.6,29.99,West,274,1.2,1.2,83,0.00,CLR,FEW,0.00,0.0,WeatherDisplay:10.37,2013-09-06 20:42:00,
2013-09-06 22:47:00,72.0,66.6,29.98,West,274,0.0,0.0,83,0.00,CLR,FEW,0.00,0.0,WeatherDisplay:10.37,2013-09-06 20:47:00,
2013-09-06 22:52:00,72.0,66.6,29.98,West,274,1.2,0.0,83,0.00,CLR,FEW,0.00,0.0,WeatherDisplay:10.37,2013-09-06 20:52:00,
2013-09-06 22:57:00,72.0,66.9,29.98,West,274,0.0,0.1,84,0.00,CLR,FEW,0.00,0.0,WeatherDisplay:10.37,2013-09-06 20:57:00,
2013-09-06 23:02:00,72.0,66.9,29.98,West,274,0.0,0.0,84,0.00,CLR,FEW,0.00,0.0,WeatherDisplay:10.37,2013-09-06 21:02:00,
2013-09-06 23:07:00,71.9,66.8,29.98,West,274,0.0,0.1,84,0.00,CLR,FEW,0.00,0.0,WeatherDisplay:10.37,2013-09-06 21:07:00,
2013-09-06 23:12:00,71.8,66.7,29.98,West,274,0.0,0.0,84,0.00,CLR,FEW,0.00,0.0,WeatherDisplay:10.37,2013-09-06 21:12:00,
2013-09-06 23:17:00,71.8,66.7,29.99,West,274,0.0,0.0,84,0.00,CLR,FEW,0.00,0.0,WeatherDisplay:10.37,2013-09-06 21:17:00,
2013-09-06 23:22:00,71.7,66.6,29.98,West,274,1.2,1.2,84,0.00,CLR,FEW,0.00,0.0,WeatherDisplay:10.37,2013-09-06 21:22:00,
2013-09-06 23:27:00,71.6,66.5,29.99,West,274,2.3,2.3,84,0.00,CLR,FEW,0.00,0.0,WeatherDisplay:10.37,2013-09-06 21:27:00,
2013-09-06 23:32:00,71.5,66.4,29.99,West,274,2.3,2.3,84,0.00,CLR,FEW,0.00,0.0,WeatherDisplay:10.37,2013-09-06 21:32:00,
2013-09-06 23:37:00,71.3,66.2,29.99,West,274,0.0,0.2,84,0.00,CLR,FEW,0.00,0.0,WeatherDisplay:10.37,2013-09-06 21:37:00,
2013-09-06 23:42:00,71.2,66.1,29.99,West,274,2.3,2.3,84,0.00,CLR,FEW,0.00,0.0,WeatherDisplay:10.37,2013-09-06 21:42:00,
2013-09-06 23:47:00,71.1,66.0,29.99,West,274,1.2,1.2,84,0.00,CLR,FEW,0.00,0.0,WeatherDisplay:10.37,2013-09-06 21:47:00,
2013-09-06 23:52:00,71.0,65.9,29.99,West,274,1.2,0.0,84,0.00,CLR,FEW,0.00,0.0,WeatherDisplay:10.37,2013-09-06 21:52:00,
2013-09-06 23:57:00,71.0,65.9,29.99,West,274,0.0,0.0,84,0.00,CLR,FEW,0.00,0.0,WeatherDisplay:10.37,2013-09-06 21:57:00,